Phoenix Sky Harbor International Airport
KPHX : now visible

Airfield :











YOU CAN JOIN US ON...

 
LOGIN :

Register | Disclaimer

   EN    FR    IT 

 









Legend :    VFR   Marginal VFR   IFR   Intensive IFR   Very Intensive IFR
Visi :
Ceiling :
>= 8 km
>= 3000ft
5 to 8 km
1000 to 3000 ft
1500m to 5 km
500 to 1000 ft
800 to 1500m
200 to 500 ft
< 800m
< 200 ft
Symbols :   Thunderstorms  Fog  Heavy snow  Heavy precipitations  Wind > 20 kt






- Airport Elevation : 1135 ft
- IATA code : PHX


KPHX - Phoenix Sky Harbor International

CURRENT METAR :
  • 231051Z 10007KT 10SM BKN250 18/04 A2980 RMK AO2 SLP076 T01780039

EXPIRED METARs :
  • 230951Z 10006KT 10SM BKN250 18/06 A2980 RMK AO2 SLP077 T01780056
  • 230851Z 09008KT 10SM FEW250 19/05 A2981 RMK AO2 SLP080 T01890050 58003

TAF KPHX
Valid from the 23 at 08:00 until the 24 at 12:00 UTC


230823Z 2308/2412 11007KT P6SM SCT250
TEMPO 2318/2321 18008KT
FM232100 25009KT P6SM SCT250
TEMPO 2322/2402 25010G17KT
KZAB FIR / North America



MET'MAP, your aeronautical weather chart ! - Copyright ORBIFLY December 2007 - Disclaimer

ORBIFLY MET'MAP TEAM :

Programming & Development : Alexandra Zaïnal
Concept & original design : Baudouin d'Aumeries
Assistance for programming : Marc-Olivier Méhu
Technical & hardware support : Manuel Goepfert

Contact : metmap@orbifly.com




SOURCES & CREDITS :

   NOAA       Earth
Advisory